GEFSNGP_500_meanwind_132.txt.gz
Wind_Speed
3 4 5 5 5 7 9 10 11 10 11 11 12 12 11 11 11 12 12 12 12 12 11 11 11 11 11 12 12 12 12 12 13 13 13 13 13 14 15 15 16 16 16 16
5 6 7 7 7 8 10 12 12 12 12 13 13 13 13 13 13 13 13 13 13 12 12 12 12 12 12 12 12 13 12 13 13 13 13 13 13 14 14 14 15 15 15 15
8 9 9 9 10 11 11 13 14 13 13 14 14 14 14 14 14 15 15 14 14 13 13 13 13 13 13 13 13 14 13 13 14 14 13 13 13 13 14 14 14 14 14 14
11 11 11 11 13 13 14 14 14 15 15 15 15 15 16 16 16 16 16 16 15 15 15 15 15 15 14 14 14 15 15 14 14 14 14 14 13 13 13 13 13 13 13 13
14 14 13 14 15 17 17 17 16 16 17 17 17 18 18 18 18 18 18 17 17 16 16 16 16 16 16 16 16 16 16 15 15 15 15 14 14 13 13 13 13 13 13 12
17 17 17 17 18 19 19 19 18 19 19 20 20 20 19 20 20 20 19 19 18 18 18 18 18 18 17 17 17 17 17 16 16 16 15 15 14 14 13 13 13 13 13 12
21 21 20 19 19 20 21 21 21 22 22 22 22 22 22 22 22 22 22 21 20 20 20 20 20 20 19 19 19 18 18 18 17 17 16 16 15 14 14 13 13 13 13 13
24 24 23 23 23 23 24 24 24 24 24 25 25 25 24 24 24 24 24 24 23 23 22 22 22 21 21 21 20 20 20 19 19 18 17 17 16 16 15 14 14 13 13 13
27 27 26 26 26 27 27 27 27 27 27 27 27 27 27 27 27 26 26 27 27 26 25 25 24 24 23 23 22 22 21 21 20 20 19 18 18 17 16 16 15 15 14 14
30 30 29 30 30 30 30 31 31 30 30 30 29 29 29 29 30 30 29 29 29 29 28 27 27 26 26 25 24 24 23 23 22 22 21 20 20 19 18 17 17 16 16 15
33 33 33 33 33 34 33 33 33 33 34 33 32 31 31 31 31 31 31 31 31 31 31 30 30 29 28 28 27 26 25 25 24 24 23 22 22 21 20 19 19 18 17 17
36 35 37 35 35 36 36 36 35 35 35 36 36 35 34 34 34 33 33 33 34 33 33 33 32 31 30 30 29 28 28 27 27 26 25 24 23 23 22 21 21 20 19 19
38 38 39 38 37 37 38 38 38 38 37 37 37 37 36 36 36 36 35 35 35 35 35 35 34 34 33 33 32 31 30 30 29 28 28 27 26 25 24 23 23 22 21 20
40 40 40 39 39 39 39 40 40 41 41 40 40 39 38 38 37 38 37 37 37 36 37 37 36 36 36 35 34 33 32 32 31 31 30 29 28 27 26 25 24 24 23 22
40 40 40 40 40 40 40 41 41 41 42 42 42 41 40 40 39 39 39 39 38 38 37 37 37 38 37 37 36 35 35 34 34 33 32 32 31 30 29 28 27 26 25 25
41 41 41 41 41 42 42 42 42 42 42 43 43 43 43 42 41 41 41 40 39 38 37 37 37 38 39 38 38 37 37 36 36 35 34 34 33 32 31 30 29 28 28 27
43 42 43 43 43 43 43 43 43 43 43 43 44 44 44 43 42 41 41 41 40 39 38 38 38 39 39 39 39 39 38 38 38 37 36 36 35 34 33 32 31 30 30 29
44 44 44 44 44 43 43 44 44 44 44 44 44 44 43 43 42 41 40 40 40 39 39 39 39 39 39 39 39 39 40 39 39 38 38 38 37 36 35 34 33 32 31 31
45 45 45 45 45 45 45 45 44 44 44 44 44 44 43 43 42 42 41 40 40 39 39 39 40 40 40 39 39 40 40 40 40 39 39 39 39 38 37 35 34 34 33 33
45 45 45 46 46 46 46 45 44 44 44 44 44 44 43 43 42 42 41 40 40 39 39 39 39 39 39 39 39 39 40 40 40 39 39 39 39 39 38 38 37 36 35 35
44 45 45 45 45 45 45 45 44 43 43 43 43 43 42 42 42 41 40 40 39 39 39 39 39 39 39 38 39 39 40 40 40 39 40 40 39 39 39 39 39 38 37 37
44 44 44 44 45 45 44 44 44 43 43 43 42 41 41 41 41 41 40 40 39 39 39 39 40 40 40 40 39 40 40 40 40 40 39 39 39 39 39 39 39 39 39 38
43 43 44 44 44 43 43 43 43 43 42 42 42 42 41 41 41 41 41 40 40 40 41 41 41 41 41 40 39 39 40 40 40 40 39 39 39 39 39 39 39 40 40 39
43 42 42 42 42 42 42 42 42 42 42 42 41 41 41 41 41 41 41 40 41 41 41 41 42 42 42 41 40 40 40 39 39 39 39 39 39 39 39 39 38 39 39 39
41 41 41 41 40 40 41 41 42 41 41 41 40 39 39 40 39 39 40 40 40 40 41 41 42 42 42 42 41 41 40 40 40 40 39 39 39 39 39 38 38 39 39 39
40 40 40 40 40 39 40 40 40 39 40 39 38 38 38 38 38 38 38 39 39 39 39 40 41 41 41 41 41 41 41 41 41 41 40 39 39 39 39 38 38 39 40 40
39 39 38 38 38 38 38 38 37 37 37 37 37 37 37 37 37 37 37 38 38 38 38 39 39 39 40 40 40 40 40 40 40 40 40 39 39 38 38 39 39 40 40 40

GEFSNGP_500_meanwind_138.txt.gz
Wind_Speed
3 3 4 5 6 7 7 7 7 7 8 9 9 10 11 12 12 12 12 12 12 12 12 12 12 12 12 12 12 13 13 14 14 14 14 14 14 14 14 14 14 14 13 13
5 6 6 7 8 8 8 9 9 10 10 12 12 12 13 13 14 14 14 14 15 14 14 14 14 14 14 14 13 13 14 14 14 15 14 14 14 14 14 14 14 13 13 13
8 9 10 9 9 10 10 10 11 12 13 14 14 15 15 16 16 16 16 16 16 16 16 16 16 16 15 15 15 15 15 15 15 15 15 15 14 14 14 14 13 13 13 12
11 11 11 11 11 12 12 12 13 14 15 16 17 17 17 18 18 18 19 19 18 19 18 18 18 17 18 18 17 16 17 16 16 16 16 16 15 14 14 14 14 13 13 13
14 14 14 13 13 14 14 14 15 16 18 19 19 19 19 19 20 20 21 21 21 21 21 20 20 20 19 20 19 18 18 18 17 17 17 17 16 15 15 15 14 14 14 14
16 16 16 15 16 16 17 17 18 20 20 21 21 21 21 21 22 22 23 23 23 23 23 23 22 22 21 21 20 20 20 19 19 18 18 18 17 17 16 16 15 15 14 14
18 19 18 18 18 19 20 20 21 22 22 23 23 23 23 23 24 24 24 25 25 25 25 25 25 24 24 23 23 22 21 21 21 20 20 19 19 18 18 17 17 16 16 15
21 21 21 21 21 22 22 23 23 23 24 25 25 26 26 26 26 27 27 27 27 27 28 28 27 27 26 26 25 24 24 23 23 23 22 21 21 20 20 19 18 18 17 16
23 24 24 24 24 25 25 26 26 27 27 27 28 28 29 29 29 29 29 29 29 30 30 30 30 30 29 28 28 27 27 26 26 26 25 24 23 23 22 21 20 19 19 18
26 26 27 27 28 28 28 29 29 30 30 30 30 30 31 31 31 31 31 32 31 31 32 32 32 32 32 31 31 30 30 29 28 28 27 27 26 25 24 24 22 21 21 20
29 30 30 31 31 31 32 32 32 32 33 33 33 33 33 32 32 32 32 32 33 33 33 32 33 33 33 33 32 32 31 30 30 30 30 29 29 28 27 26 25 24 23 22
32 32 33 33 34 34 35 35 35 35 35 35 35 35 34 34 34 34 34 35 35 35 35 34 34 34 35 35 35 34 34 33 33 32 32 31 31 30 29 28 28 27 25 24
36 36 36 36 36 37 37 37 38 37 37 37 37 36 36 36 36 36 37 37 37 37 37 37 36 36 37 37 36 36 36 35 35 35 34 34 33 32 31 30 30 29 28 27
38 38 38 38 38 38 38 39 39 39 39 39 39 39 39 39 40 39 39 39 39 40 40 39 39 39 39 39 38 38 38 37 37 36 36 36 35 35 34 33 32 31 30 30
40 40 40 41 41 41 40 40 40 40 40 41 41 41 42 42 42 42 42 41 41 42 42 42 42 41 41 40 39 39 39 38 38 37 37 37 37 37 36 35 34 34 33 32
43 43 43 43 43 43 43 42 42 42 42 43 43 43 44 44 44 45 45 44 43 43 43 43 43 42 42 41 40 39 39 39 39 39 38 38 38 38 38 37 37 36 35 34
45 44 45 45 45 45 45 44 44 44 44 45 45 45 45 45 45 45 46 46 45 44 44 44 44 43 43 42 41 40 39 39 40 40 40 39 39 39 39 38 38 38 37 36
46 46 47 47 47 46 46 46 46 46 46 46 46 46 46 46 46 46 47 47 46 45 44 45 45 44 43 42 41 40 40 39 40 40 41 40 40 40 39 39 39 39 39 39
48 48 48 48 48 48 47 47 47 47 47 47 48 48 47 47 47 47 47 47 46 46 44 44 44 43 42 41 41 40 40 39 38 39 40 40 40 40 40 40 40 40 40 40
48 49 48 48 48 48 48 48 48 48 48 48 49 49 48 48 47 47 47 46 46 45 44 42 42 42 42 42 41 41 40 40 39 39 39 40 40 41 40 40 40 40 40 40
48 49 49 49 49 49 49 49 48 48 49 50 50 49 49 48 47 47 46 45 44 44 43 42 41 41 41 42 42 42 41 40 40 39 40 40 40 41 41 41 41 40 40 40
48 48 49 50 50 49 49 50 50 50 50 50 50 50 49 48 47 46 45 44 43 43 43 42 42 42 41 42 42 42 41 41 40 40 41 41 41 42 42 42 42 41 41 41
47 48 49 49 49 49 49 50 50 50 51 50 50 50 49 48 47 46 44 43 43 43 43 43 42 42 41 41 41 42 42 42 42 42 41 41 41 42 42 43 43 42 42 41
46 47 47 47 47 48 49 49 50 50 50 49 49 49 49 48 47 46 45 44 44 43 43 43 43 42 41 41 42 42 42 42 42 42 42 42 42 42 43 43 43 42 41 41
45 45 45 45 45 46 48 48 49 49 48 47 47 46 46 46 46 45 45 44 44 44 43 43 42 42 42 42 42 43 43 43 43 42 42 42 41 41 42 42 42 41 40 40
45 44 44 44 45 45 46 46 46 46 45 45 45 44 44 44 44 44 44 44 43 43 43 42 42 42 42 42 42 42 42 42 42 41 41 41 40 39 39 40 40 40 39 39
44 44 44 44 44 44 44 44 43 43 42 42 42 42 42 43 43 42 42 42 42 41 41 41 41 40 40 40 40 41 41 40 39 39 38 38 38 38 39 39 39 39 39 38

GEFSNGP_500_meanwind_144.txt.gz
Wind_Speed
4 5 5 5 5 5 5 6 7 7 7 7 8 8 8 8 8 9 10 11 12 13 14 14 14 14 14 14 14 14 14 14 13 13 14 14 14 14 14 14 14 14 13 13
6 6 6 6 6 7 7 8 8 8 8 8 8 9 9 9 10 11 11 12 13 14 15 15 15 15 15 15 15 16 15 15 15 15 15 15 15 14 14 14 14 13 13 13
8 9 9 8 9 9 9 9 10 10 10 10 10 10 11 11 12 13 14 15 15 16 16 16 16 17 17 16 17 17 17 17 17 17 16 15 15 15 15 15 14 14 14 14
10 10 11 10 10 11 11 11 11 12 12 12 12 12 13 14 15 15 16 16 17 17 17 17 18 18 18 18 18 18 18 19 19 18 18 17 17 17 16 16 15 15 15 15
11 12 12 11 11 12 12 13 13 13 14 14 14 15 16 16 17 17 18 18 18 18 19 19 19 20 20 20 20 20 21 21 21 21 20 20 19 18 18 17 17 17 16 16
14 14 15 14 13 14 15 14 14 15 16 16 17 17 18 18 19 20 20 20 20 20 20 21 21 21 22 22 23 23 23 23 23 23 23 22 21 21 20 19 19 18 18 18
16 17 17 15 15 16 16 16 17 17 18 18 19 20 20 21 22 22 23 23 23 23 23 23 23 24 24 24 25 25 25 25 25 25 25 24 24 23 22 22 21 21 20 19
18 18 18 17 17 18 18 18 19 19 20 21 22 22 23 23 23 24 24 25 25 25 25 26 26 26 26 27 27 28 28 28 28 27 27 26 25 25 25 24 23 23 22 22
20 20 20 19 19 20 20 20 20 21 22 23 24 25 25 25 25 26 26 27 27 27 28 28 28 29 29 29 29 28 29 29 29 29 29 28 27 27 27 26 26 25 25 24
22 22 22 22 22 22 22 22 23 24 24 25 26 26 27 28 28 29 29 29 30 30 30 31 31 31 31 31 30 30 30 30 30 31 31 30 30 29 29 29 28 28 27 27
25 25 26 26 25 25 25 25 26 26 27 28 28 28 29 29 30 30 31 32 32 32 32 33 33 33 33 33 33 33 33 33 33 33 33 34 33 32 32 32 31 30 30 29
28 28 28 28 28 28 28 28 28 29 29 30 30 30 31 31 32 32 33 33 34 34 34 33 34 34 35 35 35 35 35 35 35 36 36 36 36 35 35 35 34 33 32 32
30 30 30 30 30 30 31 31 32 32 32 33 33 34 34 34 35 35 35 36 36 36 36 36 36 36 36 37 37 37 38 38 38 38 38 38 38 37 36 36 36 35 34 34
34 34 33 33 33 33 34 34 34 35 35 36 37 37 38 38 38 38 38 38 38 38 38 39 39 39 39 39 39 40 40 40 40 40 40 39 39 38 37 37 36 36 36 36
36 37 36 36 36 36 37 37 37 37 38 39 39 40 40 40 40 40 40 40 40 40 41 41 42 41 41 41 42 41 41 41 40 39 38 39 39 38 38 38 37 37 37 37
38 38 38 38 38 39 39 39 40 40 41 41 42 42 42 42 42 42 42 42 42 42 43 43 43 43 43 43 43 42 41 40 39 38 38 38 39 39 38 37 38 38 37 38
40 40 40 40 41 41 41 42 42 43 43 43 43 43 43 43 43 43 44 44 44 44 44 45 44 44 44 43 43 42 40 40 40 39 39 38 38 38 38 38 37 37 37 37
42 42 42 42 42 43 43 44 44 45 45 45 45 45 45 44 45 45 45 46 46 46 45 46 46 45 44 44 43 42 41 40 40 40 39 39 39 38 37 37 37 37 37 37
43 43 43 44 44 44 45 45 46 46 46 46 46 45 46 46 46 46 46 46 46 47 46 46 46 45 45 44 44 43 42 41 41 40 40 39 38 38 37 37 37 37 37 38
43 43 44 45 45 45 45 46 46 46 47 47 46 46 47 47 47 47 47 47 47 48 47 47 46 46 45 45 45 44 43 42 41 40 40 40 39 39 39 38 38 38 38 38
42 43 43 44 45 46 46 47 47 47 47 47 47 47 47 47 48 48 48 48 48 48 47 46 46 46 46 45 45 44 44 43 42 42 41 41 40 39 39 40 39 39 39 39
43 43 44 45 45 46 46 47 46 46 47 47 47 47 48 48 48 49 49 48 47 47 47 46 46 46 46 45 44 43 43 43 43 43 42 41 41 40 40 40 40 40 40 40
43 43 44 44 44 45 45 45 45 46 46 47 47 47 48 48 49 48 48 48 48 47 47 46 46 45 45 45 44 44 44 44 43 43 43 42 41 41 41 41 41 40 39 39
43 43 43 43 43 43 43 44 45 46 46 46 47 47 47 47 48 48 48 47 47 47 46 46 45 45 44 44 44 43 43 43 43 43 43 42 42 42 41 40 40 40 39 38
43 43 43 43 44 44 44 45 45 45 45 45 45 45 46 47 47 46 47 47 46 46 46 45 44 44 44 44 43 43 42 42 42 42 42 42 41 41 40 39 39 39 39 38
44 44 44 44 44 44 44 44 44 44 44 44 44 44 45 45 46 46 46 46 45 45 44 44 43 43 43 43 42 42 42 41 41 41 41 40 40 40 39 38 38 38 39 39
45 45 44 44 44 43 43 43 43 43 43 44 44 44 44 44 44 44 44 43 43 43 43 42 42 42 42 42 41 40 40 40 40 39 39 39 39 40 39 38 37 36 36 36

GEFSNGP_500_meanwind_150.txt.gz
Wind_Speed
9 9 9 8 9 9 9 9 10 11 10 9 9 10 9 9 8 8 8 8 8 9 10 10 11 12 13 13 14 14 14 14 15 15 16 16 16 16 16 16 15 15 15 15
10 10 10 10 10 11 11 11 11 11 11 9 11 11 10 10 10 10 10 10 11 11 12 12 13 14 14 15 15 15 15 15 16 16 16 17 17 17 17 16 16 15 15 15
11 10 11 11 11 12 12 12 13 13 12 12 13 13 12 12 12 12 12 12 13 14 14 14 15 15 16 16 16 16 17 17 17 17 17 18 18 18 18 18 17 16 16 16
12 12 13 11 12 13 13 14 14 14 14 14 14 14 14 13 13 14 14 15 15 16 16 17 17 18 18 18 18 18 19 19 19 19 19 19 20 19 19 19 19 18 18 17
14 14 14 14 13 14 15 15 15 15 14 14 15 16 15 14 14 15 16 17 18 18 19 19 19 20 20 20 20 21 21 21 21 21 21 22 22 22 21 21 21 20 19 19
16 16 16 15 14 15 16 16 15 16 16 16 17 17 16 16 17 18 18 19 19 20 21 21 21 22 22 22 22 23 23 23 23 23 24 24 24 24 24 23 23 22 22 22
17 18 19 17 16 17 18 16 16 17 17 18 18 19 19 20 20 21 21 21 22 22 22 23 24 24 24 24 24 25 25 25 26 26 26 26 26 26 26 26 26 25 25 24
20 21 22 19 19 20 19 19 19 19 20 20 20 21 21 21 22 22 23 23 24 24 24 25 25 26 26 26 26 27 28 28 28 28 29 29 29 29 29 29 28 28 26 26
24 24 23 22 22 22 22 22 22 22 22 21 22 22 23 23 23 24 24 24 25 26 27 27 27 28 28 28 29 30 30 30 31 31 31 31 31 31 31 30 30 29 28 28
26 26 25 25 24 25 24 24 24 24 24 24 24 24 25 25 25 26 26 27 27 28 28 29 30 30 30 31 31 32 33 33 33 33 34 34 33 33 33 32 32 31 31 30
29 28 28 27 27 26 26 26 26 26 27 27 27 27 27 28 28 28 29 29 30 30 30 31 32 32 33 34 34 35 35 35 36 36 36 36 35 35 34 33 33 32 32 33
31 30 30 30 30 29 29 29 29 28 29 29 29 29 29 30 31 31 31 32 32 33 33 34 35 35 36 36 36 37 37 37 37 37 37 37 36 35 35 34 34 34 34 34
33 32 32 31 31 31 31 31 31 31 31 32 32 32 32 33 33 34 34 35 35 36 36 37 37 38 38 38 39 39 39 38 38 39 39 38 37 37 36 36 35 36 36 36
34 33 33 33 32 33 33 33 34 34 34 34 34 34 35 35 36 37 37 37 37 38 38 39 39 39 40 40 41 41 41 40 40 40 40 39 39 38 38 37 37 37 37 37
35 35 35 35 35 35 35 35 36 36 36 37 37 37 37 38 38 39 39 40 39 40 40 40 41 41 42 42 42 42 42 42 42 42 41 41 40 40 39 39 38 38 38 37
36 37 37 37 37 37 37 37 37 37 38 38 38 39 39 40 41 41 41 41 41 41 42 42 43 43 44 44 44 44 44 44 44 43 43 42 42 41 40 40 39 38 38 38
37 38 38 38 38 38 38 39 39 39 40 41 41 42 42 43 43 43 43 44 44 44 45 45 45 46 46 46 46 46 46 46 46 45 44 43 42 41 41 40 40 40 39 39
39 39 39 39 40 40 40 41 41 41 42 42 43 44 44 44 45 45 45 46 46 46 47 47 48 48 48 48 48 48 48 47 46 45 45 44 43 42 42 42 41 41 40 40
40 41 41 41 41 42 42 42 43 43 43 44 45 45 46 46 46 46 47 47 48 48 48 48 49 49 49 49 49 49 48 47 46 45 45 45 44 43 43 43 42 41 40 40
42 43 43 43 43 44 44 45 45 45 45 46 46 47 47 47 47 48 48 47 48 48 48 48 49 49 49 49 49 49 48 48 47 46 45 45 45 44 43 43 42 41 41 40
43 44 44 45 45 45 46 46 46 46 46 46 47 47 47 48 48 48 48 48 48 48 49 49 49 49 49 49 49 49 48 48 47 47 46 45 45 44 44 43 42 41 41 40
44 44 45 45 46 46 46 47 47 47 47 48 48 48 48 48 48 48 48 48 48 49 49 49 49 50 50 50 49 49 48 48 47 47 46 46 46 44 43 42 42 41 41 40
44 44 45 45 46 47 47 47 47 47 47 48 48 48 48 48 48 48 48 48 49 49 50 50 50 50 50 50 49 48 47 47 47 46 46 45 45 43 42 42 41 40 41 40
44 44 45 45 46 47 47 47 47 47 47 48 48 48 48 49 49 49 49 49 49 49 50 50 50 50 50 49 48 48 47 47 46 45 44 44 43 43 42 40 40 39 40 40
44 45 46 46 46 46 46 47 48 48 48 48 48 48 48 48 49 48 48 48 48 49 49 50 50 49 49 49 48 48 47 46 45 44 43 43 42 42 41 39 38 38 39 39
46 46 46 46 46 46 46 47 48 48 48 48 48 48 48 48 48 48 47 47 47 48 48 48 48 48 48 48 47 47 46 45 44 43 43 42 41 41 40 40 39 38 37 37
46 46 46 46 45 45 46 46 47 47 47 48 48 48 48 47 47 47 47 47 46 46 46 46 46 46 45 45 45 45 44 43 43 42 42 41 40 40 40 40 39 37 37 37

GEFSNGP_500_meanwind_156.txt.gz
Wind_Speed
10 9 9 10 10 10 9 8 8 6 5 5 5 5 5 5 6 6 6 6 7 7 7 8 8 9 9 9 10 10 10 10 11 12 12 13 14 15 15 15 15 15 15 15
11 11 11 11 11 11 10 9 8 8 6 6 6 6 6 6 7 7 7 8 9 9 9 9 9 9 10 10 11 11 11 12 12 13 14 15 16 16 16 16 16 16 16 16
13 12 12 11 11 12 11 10 10 9 9 9 8 8 8 8 8 8 9 10 10 10 10 10 11 11 11 12 12 13 13 14 15 15 16 17 17 18 18 18 18 18 18 18
14 14 13 11 12 12 12 12 11 11 10 10 10 10 10 10 10 11 11 11 11 12 12 12 13 13 13 14 14 15 16 16 17 18 18 18 19 19 19 19 19 19 19 19
15 15 14 13 13 13 13 13 12 12 11 12 11 11 11 12 12 13 13 13 13 14 14 15 15 16 16 16 17 18 18 18 19 19 20 20 21 21 21 21 21 21 21 21
17 17 15 13 14 14 14 14 13 12 12 13 13 13 13 14 14 15 15 15 15 16 16 17 18 18 19 19 20 20 20 21 21 22 22 23 23 23 23 23 23 23 23 23
18 18 17 15 16 16 15 14 14 14 14 14 14 15 16 16 16 16 17 17 17 17 18 18 19 20 21 21 22 22 23 23 23 24 24 25 25 25 25 26 26 26 26 25
20 20 18 17 18 17 16 16 16 16 16 16 16 17 17 18 18 18 18 18 19 19 19 20 21 21 22 23 23 24 24 25 26 26 27 27 27 27 28 28 28 28 28 27
22 21 19 20 19 19 18 18 17 17 17 18 18 19 19 19 19 20 20 20 20 20 21 22 22 23 24 25 25 26 26 27 28 29 29 30 30 30 31 30 30 30 30 30
23 22 22 22 22 21 20 20 20 19 20 20 20 21 21 22 22 22 22 22 23 23 23 23 24 25 26 27 27 28 29 30 31 31 32 32 32 33 33 33 33 33 33 32
25 24 24 24 23 22 22 22 22 22 22 22 23 23 23 24 24 25 25 25 25 26 26 27 27 28 28 29 29 30 31 32 33 33 33 33 34 34 35 35 36 35 35 35
26 26 26 25 25 25 24 24 24 25 25 25 25 25 26 26 27 27 27 28 28 28 29 29 30 30 31 31 32 32 33 34 34 34 34 35 35 36 37 38 38 37 37 36
30 29 29 28 28 27 27 27 27 28 28 28 28 28 28 28 29 29 29 30 30 31 31 32 32 33 33 34 34 34 35 36 36 37 37 38 38 39 39 39 39 39 39 38
32 32 31 30 30 29 29 29 29 29 30 30 31 31 31 31 31 32 32 32 33 34 34 34 34 35 36 36 37 37 38 38 39 40 40 41 42 42 42 41 41 40 40 40
33 33 32 32 31 30 30 31 31 31 32 32 32 33 33 33 33 34 34 35 35 36 36 37 37 38 39 39 40 40 41 42 42 42 43 43 44 44 43 43 43 42 41 41
32 33 33 33 33 33 32 32 32 32 33 33 33 34 35 35 36 36 36 37 37 38 38 39 40 40 41 42 42 43 44 44 45 45 45 45 45 45 45 45 44 44 43 43
33 33 34 34 34 34 34 34 34 34 35 35 36 36 36 36 37 38 38 39 39 40 41 42 42 43 44 44 45 45 46 46 47 47 47 47 47 47 47 46 46 45 44 44
35 35 36 36 36 36 36 36 36 36 36 37 37 38 38 38 39 39 40 41 42 43 44 45 45 46 46 47 47 48 48 48 48 48 48 48 48 48 48 47 47 46 46 45
37 37 37 38 38 38 38 38 38 38 38 39 39 39 40 41 42 42 43 44 44 45 46 47 48 48 48 49 49 49 49 49 49 49 49 49 49 49 48 48 47 47 46 46
38 39 39 39 39 40 40 40 40 40 40 40 40 41 42 42 43 44 45 45 46 47 47 48 48 49 49 49 50 50 50 50 51 50 50 50 50 49 49 49 48 47 47 46
38 38 39 39 40 40 41 41 42 42 42 42 43 43 44 45 45 46 46 46 47 48 48 48 48 49 49 50 51 51 51 51 51 50 50 50 50 49 49 48 48 47 46 46
38 39 39 40 41 41 42 42 42 43 44 44 45 45 46 46 47 47 47 48 48 48 48 48 49 49 49 50 50 51 51 51 51 51 50 50 50 49 48 48 47 46 46 45
38 39 40 40 41 42 42 43 43 44 45 46 46 47 47 47 48 48 47 47 47 48 49 49 50 50 50 50 51 51 51 51 51 51 50 49 49 48 47 46 45 45 45 44
38 39 40 40 41 42 43 43 44 45 46 47 47 48 48 48 47 47 47 48 48 49 49 49 49 50 51 51 51 52 52 52 52 51 50 49 48 47 46 45 44 43 43 43
39 39 40 41 42 42 43 44 45 46 46 47 47 47 47 47 48 48 48 48 48 49 49 49 50 50 50 50 51 51 51 51 51 50 49 49 48 47 46 45 44 43 42 42
40 41 41 42 42 43 43 44 44 45 45 46 46 46 47 47 47 47 48 48 48 49 49 49 49 49 50 50 50 50 50 50 50 49 48 48 47 46 45 45 44 43 42 41
43 43 43 43 43 43 43 43 43 43 44 45 45 46 46 47 47 47 48 48 48 48 48 48 49 49 49 50 50 49 49 49 48 48 47 47 47 46 45 44 43 42 41 40

GEFSNGP_500_meanwind_162.txt.gz
Wind_Speed
11 11 11 11 10 9 8 7 7 6 7 8 8 8 9 10 9 9 9 10 10 9 9 10 10 10 10 9 9 10 10 10 10 10 11 12 12 13 14 15 15 16 17 17
12 12 12 11 10 10 9 8 7 7 7 8 8 8 8 9 8 8 9 10 10 10 10 11 11 11 11 10 10 10 10 11 11 12 12 13 14 14 15 16 16 17 18 18
13 13 13 12 11 11 10 9 9 9 9 9 8 8 8 8 9 9 9 9 10 10 11 11 12 12 12 11 11 11 11 12 13 13 14 14 15 16 16 17 17 18 19 20
15 15 14 12 12 12 12 11 10 10 10 10 10 10 10 10 10 10 11 11 11 12 12 12 12 13 13 13 13 13 13 14 14 15 16 16 17 17 18 18 19 20 20 21
17 16 14 13 13 13 13 12 12 11 11 12 12 13 12 12 12 12 13 13 13 13 14 14 14 14 15 15 15 15 16 16 16 17 18 18 18 19 19 20 20 21 22 22
18 17 15 14 14 14 14 12 12 13 13 14 14 14 14 14 14 14 14 14 14 14 15 15 15 16 16 17 17 18 18 19 19 19 19 20 21 21 22 22 23 23 23 23
19 18 17 16 16 16 15 13 15 15 15 15 15 15 16 16 16 15 15 15 16 16 16 16 17 17 18 18 19 20 20 21 21 22 22 22 23 23 24 24 24 25 25 25
21 20 17 17 18 18 17 17 17 17 16 16 16 17 17 17 17 17 17 17 17 17 18 18 18 19 19 20 21 21 21 22 23 24 24 25 25 26 26 27 27 27 27 28
22 21 20 20 19 19 19 19 19 19 19 18 18 19 19 19 19 19 19 19 19 19 19 20 20 21 21 22 22 23 23 24 25 25 26 27 27 28 29 29 30 30 30 30
24 23 23 22 21 21 21 21 21 21 21 20 20 20 20 20 21 21 21 22 22 22 22 22 23 23 23 24 25 25 25 26 27 27 28 28 29 30 31 32 32 33 33 32
27 25 25 24 24 24 23 23 23 23 23 22 22 22 22 22 22 22 23 24 24 24 24 25 25 26 26 26 27 27 28 28 29 29 30 31 32 32 33 34 34 35 35 36
28 28 27 26 26 25 25 24 24 25 25 24 24 25 24 24 25 25 25 25 26 27 27 27 28 28 29 29 29 30 30 31 31 32 32 33 34 35 35 36 37 38 38 39
30 30 30 29 28 27 27 27 27 27 27 27 27 27 27 27 27 27 27 28 28 29 29 30 30 30 31 31 32 33 33 33 34 35 35 36 37 38 38 39 40 41 41 41
30 31 31 31 31 31 30 30 29 29 29 29 29 29 29 29 30 30 30 30 30 31 31 31 32 33 34 34 35 35 36 36 37 38 39 40 40 40 41 41 42 43 43 43
31 31 31 31 32 32 32 31 31 31 31 31 32 32 31 31 31 31 32 32 32 33 33 34 35 35 36 37 37 38 38 39 40 41 41 42 42 43 43 44 44 44 44 44
33 33 32 32 32 32 32 32 32 32 32 32 32 32 32 33 33 34 34 34 34 35 36 36 37 38 38 39 39 39 40 41 42 43 43 44 44 45 45 45 46 46 45 45
35 34 34 33 33 33 33 33 32 33 33 33 33 34 34 35 35 35 35 36 36 37 37 38 39 40 40 41 41 41 42 43 44 44 45 45 46 46 46 47 47 46 45 45
35 35 35 35 34 34 34 34 35 35 35 35 36 36 36 36 36 36 37 37 38 39 39 40 40 41 42 42 43 43 44 45 45 46 46 47 47 48 48 48 47 47 46 46
36 36 36 36 36 36 36 36 36 37 37 37 38 38 38 38 38 38 39 40 40 41 41 42 42 42 43 43 44 45 45 46 46 47 48 48 48 49 49 49 48 48 47 47
36 37 37 37 37 38 38 38 38 38 39 39 39 40 40 40 40 40 41 41 41 42 43 43 43 44 44 45 45 45 46 47 47 48 49 49 49 49 49 49 48 48 48 48
37 38 38 38 39 39 40 40 40 40 40 40 40 41 40 40 41 41 41 42 42 43 43 44 45 45 45 46 46 46 47 48 48 48 49 49 49 49 48 48 49 49 49 49
38 38 38 39 39 40 40 41 41 41 42 42 42 42 42 42 42 42 42 43 43 44 45 45 46 46 47 47 47 48 48 49 49 49 49 49 49 49 49 49 49 50 50 50
39 40 40 40 40 40 41 41 42 42 43 43 43 43 43 44 44 44 44 44 45 45 46 46 47 48 48 49 49 49 49 49 49 49 49 49 49 49 50 50 50 51 51 50
38 39 40 41 42 42 42 42 42 43 44 44 44 45 45 45 45 45 45 46 46 46 47 47 48 49 50 50 50 50 49 49 49 49 49 50 50 51 51 51 51 51 51 50
39 40 40 41 42 43 43 43 44 44 44 45 46 46 46 47 46 46 47 47 47 48 48 48 49 49 49 49 49 49 49 49 50 50 50 51 51 51 51 51 51 51 49 48
40 40 40 41 41 42 43 44 44 45 46 46 46 46 47 47 48 48 48 48 48 48 48 48 48 48 49 49 49 49 49 50 50 51 51 52 52 52 51 50 50 49 48 46
41 41 40 40 41 42 42 43 44 44 45 45 46 46 47 47 47 47 47 48 48 48 48 48 48 48 48 49 49 49 50 50 51 51 51 52 52 51 50 49 49 48 46 45

GEFSNGP_500_meanwind_168.txt.gz
Wind_Speed
11 10 10 10 10 10 10 10 9 9 10 10 11 11 12 12 11 11 11 12 12 12 12 12 12 11 11 10 10 9 9 9 9 9 9 9 10 10 10 11 12 13 13 14
12 12 12 12 11 11 11 11 10 11 11 12 12 12 12 12 12 12 12 12 13 13 12 12 12 12 12 11 11 10 10 10 10 10 10 10 10 11 12 13 13 14 15 15
15 14 13 13 12 12 12 12 12 12 12 13 13 13 13 13 13 12 12 12 13 13 13 13 13 13 12 12 11 11 11 11 11 11 11 12 12 12 13 14 15 16 16 17
17 16 15 13 13 13 13 13 13 13 13 13 14 14 14 14 14 13 13 13 13 14 14 13 13 13 12 12 13 12 12 12 13 13 14 14 15 15 16 16 17 17 18 18
18 18 16 15 14 15 14 14 13 13 13 13 14 14 14 14 14 14 14 14 14 14 15 14 14 13 13 13 14 14 14 15 15 15 16 17 17 18 18 19 19 19 19 19
19 19 18 16 17 16 16 15 15 15 14 14 15 14 14 15 15 15 15 15 15 15 15 15 15 15 15 15 15 15 16 16 17 17 18 18 19 20 20 20 21 21 21 21
20 20 18 18 18 18 17 16 16 16 15 15 15 15 15 15 15 15 15 15 15 16 16 16 16 16 16 17 17 17 18 18 19 19 20 20 21 22 22 22 23 23 23 23
21 21 18 18 19 19 18 18 18 18 17 17 17 17 17 17 17 17 16 16 16 16 17 17 17 18 18 18 19 19 19 20 21 22 22 23 24 24 24 24 25 25 25 25
23 22 20 20 20 20 20 20 20 20 19 18 18 18 19 19 18 18 18 18 18 18 18 19 19 19 20 20 20 21 21 22 23 24 25 25 26 26 26 26 27 27 27 27
23 23 22 22 22 22 22 22 21 21 21 21 20 20 20 19 19 19 19 19 19 19 20 20 20 21 22 22 23 23 24 25 26 27 27 27 27 28 28 28 29 29 30 30
25 24 24 24 24 24 24 24 23 23 23 23 22 22 21 21 21 21 21 21 21 21 22 22 23 23 24 25 25 26 27 27 28 29 29 30 30 30 30 31 31 32 32 32
26 26 26 26 26 26 25 25 25 25 24 24 24 24 23 23 23 23 23 23 24 24 24 25 25 26 26 27 27 28 29 29 30 31 31 32 32 32 32 33 33 34 34 35
28 28 28 27 27 27 27 27 27 27 27 27 26 26 26 26 26 25 25 26 26 27 27 28 28 28 29 29 30 30 30 31 32 33 33 34 34 34 35 35 36 36 37 38
29 29 29 28 28 29 29 29 28 28 28 28 28 28 28 27 27 27 28 28 29 29 29 29 30 30 31 31 31 32 33 33 34 34 35 35 36 36 36 37 38 38 39 40
30 30 29 29 29 29 30 30 30 30 30 30 30 30 30 30 30 29 30 30 30 31 31 31 32 32 32 33 33 34 34 35 35 36 37 37 38 38 39 39 40 40 41 42
31 31 30 30 29 29 30 30 30 30 31 31 31 31 32 32 32 31 31 31 32 32 32 33 33 33 34 35 36 36 36 37 37 38 39 40 40 41 41 41 42 43 43 43
32 31 31 31 30 30 30 30 30 30 31 32 33 33 33 33 33 33 33 33 34 34 34 35 35 36 36 37 37 37 38 38 39 40 41 41 42 43 43 43 44 44 44 44
32 32 32 31 31 31 31 31 31 32 32 33 34 34 34 34 34 34 35 35 35 36 36 36 37 38 38 38 38 39 39 40 41 41 42 42 43 44 44 44 45 45 45 45
33 33 33 32 32 32 33 33 33 33 34 34 34 35 35 35 35 35 36 37 37 37 37 38 38 39 39 40 40 40 41 41 42 42 43 43 43 44 45 45 45 46 46 46
34 34 33 33 33 33 33 33 34 34 34 35 35 35 36 36 36 37 37 38 38 39 39 40 40 41 41 41 41 41 41 41 42 42 43 43 44 45 46 46 47 47 48 47
35 35 34 34 35 35 35 35 35 35 35 36 36 37 37 37 38 38 38 38 39 40 41 41 42 42 42 42 42 42 42 42 42 43 44 45 46 47 48 48 48 49 49 48
37 36 36 36 36 36 36 37 37 37 37 37 38 38 38 39 39 39 40 40 40 41 41 42 42 42 42 42 42 43 43 44 45 46 46 47 48 48 49 49 49 49 49 48
37 37 37 37 37 37 37 38 38 38 38 38 39 39 39 39 39 40 40 40 41 42 42 42 42 42 42 43 43 44 45 46 47 48 49 49 50 50 50 50 49 49 49 48
37 37 37 38 38 38 38 39 39 39 39 39 39 39 39 40 41 41 41 42 43 43 43 43 43 44 44 45 45 46 47 48 49 49 50 50 50 50 50 50 49 49 48 48
37 37 38 38 38 38 38 39 39 40 40 41 40 41 41 42 42 43 43 44 44 45 45 46 46 47 47 48 48 49 49 49 49 50 50 49 49 49 48 48 48 48 48 49
37 37 38 38 39 39 39 40 41 41 41 41 42 42 42 43 44 44 45 45 46 46 47 47 48 48 48 48 48 48 48 49 48 48 48 48 48 48 48 48 48 48 48 49
37 37 38 38 39 39 40 41 41 42 42 42 43 43 43 44 44 45 45 46 47 47 48 48 48 47 47 47 48 48 48 48 48 48 48 48 48 48 48 48 48 48 49 49

GEFSNGP_500_meanwind_174.txt.gz
Wind_Speed
9 10 10 10 10 11 11 11 11 11 12 11 12 12 11 11 11 11 11 11 10 11 11 11 11 11 11 11 11 11 11 11 10 10 10 10 10 11 11 12 13 13 14 14
11 11 11 12 12 11 11 12 12 12 13 13 13 13 12 11 11 11 12 12 11 11 12 12 12 13 12 12 12 12 12 12 11 11 11 11 11 12 12 13 14 14 15 15
14 13 14 14 13 13 13 12 13 13 14 14 14 14 13 12 12 12 12 12 12 12 12 13 13 13 13 13 13 13 13 13 12 12 13 12 13 13 13 14 15 15 16 17
15 15 15 14 14 14 14 13 14 14 15 16 16 15 15 14 13 13 13 13 13 13 13 13 14 14 14 14 14 14 14 14 14 14 14 14 14 15 15 15 16 17 18 18
18 18 17 15 15 16 15 14 14 15 16 17 17 17 16 15 15 14 15 15 15 15 15 14 14 15 15 15 15 15 15 15 15 16 16 16 16 16 16 17 17 18 19 20
20 20 18 16 17 17 17 16 15 16 17 18 18 18 16 16 16 15 15 16 16 15 15 15 15 16 16 16 16 16 16 17 17 18 18 18 18 18 18 19 19 20 21 22
21 21 19 18 18 19 18 17 17 18 18 18 18 18 17 18 17 16 16 16 16 16 16 16 16 17 17 18 17 18 18 19 19 19 19 20 20 20 21 21 22 22 23 23
22 22 21 20 20 21 21 21 20 19 19 18 18 19 18 18 18 17 17 17 17 17 17 17 18 18 19 19 19 20 20 20 21 21 21 22 22 22 23 23 24 25 25 26
23 23 22 22 23 23 22 22 22 21 20 20 20 19 19 18 18 18 18 18 18 18 18 19 19 20 20 21 21 22 22 22 22 23 23 23 24 24 25 26 26 27 27 28
25 24 24 25 25 24 24 24 24 23 22 22 21 20 20 20 20 20 20 20 20 20 20 20 21 21 22 22 23 24 23 24 24 25 25 25 25 26 27 28 28 29 29 30
28 26 26 26 26 26 26 25 24 24 24 24 23 22 21 22 21 21 21 21 21 21 22 22 23 23 23 23 24 25 25 25 26 26 27 27 27 28 29 30 30 30 31 32
29 28 28 27 28 27 26 26 26 25 25 25 25 25 24 24 23 23 23 23 23 24 24 24 24 24 25 25 26 26 27 27 27 28 28 28 29 30 31 31 32 32 33 34
29 29 29 28 28 28 27 27 26 26 26 26 26 26 26 26 25 25 25 25 25 25 25 25 26 26 27 27 27 28 28 28 29 29 29 30 31 31 32 32 33 34 35 35
30 30 29 28 28 29 29 28 28 28 27 27 27 27 27 27 27 27 27 27 27 27 27 27 27 28 28 29 29 30 30 30 30 31 31 32 32 33 34 34 35 36 37 37
31 31 30 29 29 29 30 29 29 29 29 29 28 29 29 28 28 28 28 29 29 29 29 29 29 29 30 31 31 31 31 31 32 33 33 33 34 35 36 37 37 38 38 38
32 31 30 30 30 30 30 30 30 30 29 29 30 30 30 30 30 29 29 29 30 30 31 32 32 32 32 32 33 33 33 34 34 34 35 36 37 37 38 39 39 39 39 40
33 32 32 31 31 31 31 30 30 30 31 31 31 31 31 31 31 31 31 31 32 32 32 32 32 32 32 33 34 34 34 35 35 36 37 38 39 39 39 40 40 41 41 41
34 34 34 34 34 33 33 32 31 31 31 31 31 31 31 32 32 32 32 32 32 32 32 33 33 34 34 34 35 36 36 36 37 38 38 39 39 39 40 40 41 42 42 42
35 34 34 35 35 34 34 33 33 32 32 32 32 32 32 32 33 33 33 34 34 34 34 35 36 36 36 36 36 37 37 38 39 39 39 40 40 40 40 41 42 42 43 43
35 35 35 35 35 35 35 35 35 34 34 33 34 34 35 34 35 35 35 36 36 36 36 37 37 38 38 38 38 39 40 40 40 41 41 41 41 41 42 42 43 44 45 46
35 36 36 35 36 36 37 37 36 36 36 36 36 36 37 37 37 37 37 37 37 37 38 38 39 39 40 40 40 41 41 42 42 42 42 42 43 44 44 45 45 46 47 47
37 37 37 37 37 38 38 38 38 38 38 38 38 38 38 38 39 39 39 38 38 39 39 40 40 41 41 41 42 42 43 43 43 43 44 44 45 45 46 46 47 47 48 48
38 38 38 38 38 38 39 39 39 39 39 39 39 39 39 39 39 39 40 40 40 40 41 41 42 42 42 43 43 44 44 44 44 45 46 46 46 46 46 47 47 48 48 49
39 39 39 39 39 39 39 40 40 40 40 40 41 41 41 41 40 40 40 41 41 42 42 42 43 43 43 44 44 45 45 45 46 46 47 46 46 46 46 47 48 48 49 49
39 39 40 40 41 40 40 40 40 41 41 40 41 42 41 41 41 41 41 41 42 42 43 44 43 44 44 45 45 45 46 46 46 47 47 47 47 47 48 48 49 49 49 49
38 38 39 39 39 40 41 42 42 42 41 41 41 41 41 41 41 42 42 43 43 43 43 43 44 44 44 45 45 46 46 47 48 48 48 48 48 48 48 49 49 49 49 49
36 36 37 37 37 38 38 39 40 41 41 41 42 42 42 42 43 43 44 43 44 44 44 45 45 45 46 46 46 46 46 47 47 47 48 48 48 48 48 49 49 49 49 49

GEFSNGP_500_meanwind_180.txt.gz
Wind_Speed
11 12 12 12 12 11 10 9 10 10 10 9 8 8 8 8 8 9 9 10 10 10 10 11 11 11 11 11 10 10 9 9 9 9 9 9 9 9 9 9 9 10 10 11
13 13 13 13 12 11 10 10 10 11 10 10 10 9 9 9 9 9 10 10 11 11 11 11 11 11 12 11 11 11 11 10 10 10 10 10 10 10 11 11 11 11 12 12
14 15 15 14 12 12 12 10 11 11 11 12 12 11 10 10 10 11 11 11 11 11 11 11 11 11 12 12 12 12 12 11 11 11 11 12 12 12 12 12 13 13 13 13
17 17 17 14 14 14 13 13 13 12 12 13 13 13 12 11 10 11 12 12 11 12 12 12 12 12 13 13 13 13 13 13 13 13 13 13 14 14 14 14 14 15 15 15
19 18 17 15 15 16 15 14 14 13 13 13 14 14 13 12 12 12 12 13 12 13 13 13 14 14 14 14 13 14 14 14 14 15 15 15 15 15 16 16 16 17 17 18
20 19 19 16 16 18 17 16 15 15 14 14 14 14 13 13 13 14 14 14 14 14 14 14 14 14 15 15 14 15 15 15 16 16 16 16 16 17 18 18 18 19 19 20
21 20 19 17 18 18 19 16 16 16 15 14 14 13 14 14 14 15 15 16 16 15 15 15 15 16 16 16 15 16 16 17 17 17 17 18 18 19 20 20 20 21 21 22
23 23 20 19 19 18 18 17 17 16 16 15 14 15 15 15 15 16 17 17 17 17 17 17 17 17 17 17 17 18 18 18 18 18 19 19 20 21 21 22 22 22 23 24
25 24 21 21 21 20 19 19 18 18 17 17 16 16 16 16 17 17 18 18 18 18 18 18 18 18 18 19 19 19 20 20 20 20 21 21 22 23 23 24 24 24 25 25
26 25 24 23 23 22 21 20 20 20 19 18 17 17 17 17 18 18 18 19 19 19 20 20 19 19 19 20 21 21 22 22 22 22 23 24 24 25 25 26 26 26 27 27
28 27 26 24 24 23 22 22 22 21 20 20 19 18 19 19 20 19 19 19 20 20 20 20 20 21 21 21 22 23 23 24 24 24 25 25 26 26 27 27 28 28 28 29
28 28 27 26 25 24 25 24 24 23 22 22 21 20 20 20 20 21 21 21 22 22 21 22 22 23 23 23 23 24 25 25 26 26 26 26 27 28 28 29 29 30 30 31
28 29 29 28 28 27 26 26 26 25 25 24 23 22 22 22 22 22 22 22 23 23 23 24 24 24 24 25 25 25 26 26 26 27 27 28 28 29 29 30 31 31 32 33
29 30 29 28 28 28 28 27 26 26 26 25 25 24 23 23 24 24 24 24 24 24 25 25 25 25 25 26 26 26 26 27 27 27 28 29 29 30 31 32 32 33 34 34
30 29 29 29 28 28 28 29 29 27 26 26 26 26 26 26 26 26 26 26 26 26 26 26 26 26 27 27 27 28 28 28 29 29 30 31 32 32 33 33 34 35 35 35
31 31 30 30 30 29 29 29 29 29 28 27 27 27 27 28 28 28 28 27 27 27 28 28 28 28 29 29 29 29 29 30 30 31 32 33 33 34 35 35 36 36 36 36
32 32 32 32 31 31 31 31 31 30 30 29 28 27 27 28 28 28 28 28 28 28 29 29 29 30 30 31 31 31 32 33 33 34 34 35 35 35 36 36 36 37 37 38
33 33 34 33 33 33 32 32 32 32 31 30 30 29 28 28 28 29 29 30 30 30 30 30 31 31 32 32 33 34 35 35 36 36 36 36 36 37 37 37 38 38 39 39
34 34 34 34 34 33 33 32 32 33 33 32 32 31 30 30 30 30 30 31 31 31 32 32 32 33 33 34 34 34 35 36 36 37 37 38 38 38 39 39 39 40 41 41
34 34 34 34 34 35 34 34 34 34 34 34 33 33 33 32 33 33 33 33 33 33 34 34 34 34 34 34 35 36 36 37 37 38 39 39 39 40 40 41 42 42 42 42
35 35 35 35 35 35 35 35 35 35 35 35 35 35 34 34 35 35 35 35 35 35 35 36 36 36 36 36 36 37 37 38 38 39 39 40 40 41 42 42 43 44 43 43
35 35 35 35 36 36 35 35 35 35 35 35 36 36 36 35 35 35 35 35 35 36 36 37 37 37 38 38 38 38 39 39 40 40 40 41 41 42 43 44 44 44 44 45
36 35 35 35 36 36 36 36 36 36 36 36 36 37 37 37 37 36 36 36 37 37 37 38 38 39 39 40 40 40 41 41 42 42 43 43 44 44 44 45 45 45 45 46
36 36 36 35 36 36 36 36 36 37 37 37 37 37 37 38 38 39 39 39 39 39 39 39 40 41 41 41 42 43 43 44 44 44 44 45 45 46 45 45 46 46 46 47
35 36 36 36 36 36 36 36 36 37 38 38 38 38 39 40 40 40 40 40 41 41 41 41 41 42 42 42 43 44 45 45 45 46 46 46 46 46 45 45 46 46 47 47
35 35 35 35 35 36 36 36 36 37 37 38 38 39 40 40 41 42 42 41 42 42 42 42 43 43 43 43 44 44 45 45 46 46 46 46 46 45 46 46 46 46 46 46
34 34 34 34 34 34 35 35 35 35 35 36 37 37 38 39 40 41 41 41 41 42 42 43 43 43 44 44 44 45 45 46 46 46 46 46 46 46 47 47 47 46 46 47

GEFSNGP_500_meanwind_186.txt.gz
Wind_Speed
12 12 12 12 12 12 10 9 9 8 9 10 11 10 10 10 11 11 11 11 12 12 12 12 12 13 13 13 12 12 11 11 10 9 9 9 9 9 9 10 10 10 10 11
14 14 14 14 14 13 12 10 9 9 10 11 11 11 11 11 10 10 10 11 12 12 13 12 12 13 13 13 12 12 12 11 11 10 10 11 11 10 11 11 11 11 12 12
15 15 16 15 14 14 12 11 11 11 10 11 11 11 12 12 11 11 11 12 12 13 13 13 13 13 13 13 13 13 12 12 12 11 11 12 12 12 12 12 12 13 13 14
16 16 17 15 16 15 13 13 13 12 12 12 12 12 13 13 13 13 13 12 13 13 14 14 15 15 14 14 14 14 14 14 13 13 13 13 13 13 14 14 14 14 15 15
18 18 17 16 16 15 15 14 14 13 13 13 13 13 14 14 15 15 15 14 15 15 15 15 15 16 16 15 15 15 16 16 15 15 15 15 15 15 15 16 16 16 17 17
20 19 18 17 16 16 17 16 15 15 14 14 15 15 14 15 16 16 16 16 16 16 16 16 16 17 17 16 16 16 17 17 16 16 17 17 16 16 17 17 18 18 19 19
22 21 20 18 17 18 17 16 17 17 17 16 16 16 15 16 16 17 17 16 17 17 17 17 18 18 18 18 18 18 18 18 18 18 18 18 18 18 19 19 20 20 20 21
24 23 21 19 20 20 19 18 17 18 18 18 18 17 17 17 17 17 17 17 18 18 18 19 19 19 19 19 19 19 19 19 20 19 19 19 20 20 20 21 21 22 23 23
25 24 22 21 21 21 20 20 19 19 19 19 18 18 18 18 18 18 18 18 19 19 19 20 20 20 20 20 21 21 21 21 21 21 21 21 22 22 22 22 23 24 24 24
26 24 23 23 22 22 22 21 21 20 20 20 20 20 20 20 20 20 20 20 20 20 20 21 21 21 21 22 22 23 22 22 22 22 23 23 23 23 24 24 25 25 26 26
27 25 25 24 24 23 23 23 23 22 21 21 21 21 22 22 22 22 22 22 22 21 21 21 22 22 23 24 24 24 24 24 23 24 24 24 24 25 25 26 26 27 28 28
27 27 27 26 25 24 24 24 24 24 23 23 22 22 22 23 23 23 23 23 23 23 23 23 23 24 25 25 25 26 25 25 25 26 26 26 26 26 27 27 28 29 29 29
29 29 28 28 27 25 25 25 25 25 25 24 24 23 23 23 23 23 24 24 24 24 24 25 25 25 26 27 27 26 26 26 27 27 27 27 27 27 28 29 29 30 31 31
30 31 30 29 29 28 27 26 26 26 26 25 25 25 24 24 24 24 24 25 26 26 26 26 26 27 26 27 28 28 28 28 28 28 28 28 29 29 30 30 31 32 33 33
32 32 32 31 31 30 29 28 28 27 27 27 27 26 26 25 25 25 25 26 27 27 27 27 28 28 28 28 28 28 29 29 29 29 30 30 31 31 32 33 33 34 35 35
33 34 33 33 32 31 30 30 29 29 28 29 29 28 27 27 27 27 26 26 26 27 28 28 28 29 29 29 29 30 30 30 30 31 31 32 32 33 34 34 35 36 36 36
35 34 34 34 33 32 32 31 31 30 30 29 29 29 29 29 28 27 27 28 28 28 28 29 29 29 29 30 30 30 31 32 32 33 33 34 34 35 35 36 36 36 37 38
35 35 35 34 34 34 33 33 32 32 32 31 30 31 30 30 29 29 29 29 29 30 30 30 30 30 31 31 32 32 32 33 34 34 35 36 36 37 37 37 38 38 39 39
35 35 35 35 34 35 34 34 34 33 33 33 32 32 32 32 31 31 31 31 31 31 31 32 32 33 33 33 33 34 34 35 35 36 36 37 37 38 39 39 39 40 40 41
35 36 36 36 36 35 35 35 35 35 35 34 34 34 33 33 33 33 33 33 33 33 33 34 33 34 34 34 35 35 36 36 36 36 37 37 38 38 39 39 40 40 41 41
36 36 36 36 36 35 35 35 35 35 36 36 35 35 35 35 34 34 34 34 34 34 34 34 35 35 35 35 35 36 36 37 37 37 38 38 39 40 40 40 41 41 41 42
36 36 36 36 35 35 35 36 36 36 36 36 36 36 36 36 36 36 36 36 36 36 36 36 36 37 37 37 37 37 38 38 39 39 40 40 41 41 41 42 42 42 43 44
36 36 36 36 36 35 36 36 36 36 36 37 37 37 38 38 37 37 37 37 37 37 37 37 37 38 39 39 39 39 39 40 40 41 41 42 42 42 43 43 44 44 44 44
35 36 36 36 36 35 35 36 36 36 36 37 37 37 38 38 38 38 38 38 38 39 38 39 39 40 39 40 40 41 41 41 42 42 43 43 44 44 45 45 45 45 45 45
36 36 36 36 36 36 36 37 37 37 38 38 38 38 38 38 38 39 39 39 40 40 40 40 41 41 41 41 41 42 43 43 44 44 44 45 45 46 46 46 46 45 45 45
35 36 36 36 36 36 37 37 37 38 38 38 38 38 39 39 39 39 40 40 40 41 41 41 42 42 42 42 43 43 44 44 45 45 46 46 46 47 47 47 47 46 46 46
34 35 35 35 36 36 37 37 37 37 37 38 39 39 39 40 40 40 40 40 40 41 41 42 42 42 42 43 44 44 44 44 45 46 46 46 46 46 46 46 46 47 47 47

GEFSNGP_500_meanwind_192.txt.gz
Wind_Speed
14 13 13 13 13 12 12 11 11 10 10 11 11 11 12 12 11 12 12 12 12 13 13 13 14 14 14 14 14 15 15 14 13 12 12 11 10 10 9 9 9 9 10 10
15 14 13 13 14 13 12 12 11 11 11 10 10 10 11 12 12 13 13 13 12 12 12 13 13 13 14 14 15 15 16 15 15 14 13 12 11 11 11 11 11 11 11 11
15 15 15 14 14 14 13 12 12 12 11 12 12 11 11 12 13 13 13 13 12 12 12 13 13 14 14 14 15 15 15 15 15 15 15 14 13 13 12 12 12 12 12 13
16 16 17 15 15 15 14 14 13 13 13 13 12 12 12 13 13 14 14 14 13 13 14 14 14 15 15 15 16 16 16 17 17 16 16 16 15 14 14 14 14 14 14 14
18 18 17 16 15 15 16 15 14 14 13 14 13 14 13 13 14 14 14 14 15 15 15 15 15 15 15 16 16 16 16 17 17 17 17 16 16 16 16 16 16 16 16 16
20 19 18 17 15 16 16 15 15 15 14 14 15 15 14 14 15 15 15 14 15 15 16 16 16 16 16 17 17 17 18 18 18 18 18 18 18 17 17 17 17 17 17 17
20 20 19 18 17 17 16 15 15 16 15 16 15 15 16 16 16 16 16 16 16 16 16 17 17 17 18 18 19 19 19 19 19 19 19 19 19 19 19 19 19 19 19 19
22 21 21 19 19 18 17 17 17 16 17 16 16 16 17 17 17 18 18 17 17 17 17 18 19 19 19 20 20 21 20 20 20 21 21 21 21 21 21 21 20 21 21 21
23 23 22 21 21 20 19 18 18 18 18 18 17 17 17 18 18 18 18 18 18 18 18 19 19 19 20 21 21 21 21 22 22 22 22 22 22 22 23 22 22 22 23 23
24 23 23 22 21 21 20 20 20 20 20 19 19 19 19 18 19 19 19 19 19 19 19 20 20 20 20 21 21 22 22 22 22 23 23 24 24 24 24 23 24 24 24 24
26 25 24 23 23 22 22 21 21 21 21 20 20 19 19 19 19 20 20 20 20 20 20 21 21 22 22 22 22 22 23 23 23 24 24 25 25 25 25 25 25 26 26 26
26 26 26 25 24 24 24 22 22 22 22 21 21 20 20 20 20 21 21 21 21 22 22 22 22 23 23 23 23 24 24 24 25 25 26 26 27 27 27 27 28 28 28 28
28 27 27 26 26 26 25 24 24 23 23 22 22 22 22 22 22 22 22 22 22 22 23 23 23 23 24 25 25 25 25 26 26 26 27 27 28 28 29 29 30 30 29 29
29 28 28 27 27 27 27 26 25 25 25 24 24 23 23 23 23 23 23 23 23 23 23 24 24 24 25 26 27 27 27 28 27 28 28 29 29 30 30 30 30 30 30 30
32 31 29 29 29 29 28 27 26 26 26 26 26 26 25 25 25 24 24 25 24 24 25 25 25 25 26 27 27 28 28 28 28 29 29 30 30 30 31 31 31 31 31 31
32 32 31 31 30 29 29 28 28 28 27 28 28 28 27 27 26 26 26 26 26 26 26 26 26 27 27 28 28 28 29 29 29 29 30 30 31 32 32 32 32 32 33 33
34 33 32 32 31 31 30 29 30 30 30 29 30 30 29 29 28 28 27 28 28 28 28 28 28 29 29 29 29 30 30 30 30 31 31 31 31 32 32 33 33 33 34 35
34 34 33 32 32 32 32 32 31 31 31 31 31 30 30 30 30 30 29 29 29 29 29 29 29 30 30 29 30 31 32 32 32 32 33 33 33 34 34 35 35 35 36 36
34 34 34 34 34 34 34 33 33 33 33 33 32 32 32 31 31 30 31 31 31 31 31 31 31 31 31 31 31 32 33 33 34 34 35 35 35 35 36 36 36 36 37 37
35 35 35 35 35 35 35 35 34 34 34 34 33 33 33 32 32 32 32 32 32 31 32 32 32 32 32 32 32 33 34 35 36 36 36 35 36 36 36 36 37 37 37 37
34 34 34 35 35 36 36 36 35 35 35 35 35 34 34 34 34 33 33 33 33 33 33 33 33 33 33 34 34 35 35 36 36 36 36 36 36 36 36 36 37 37 37 38
34 34 35 35 35 35 35 36 36 36 35 35 35 35 35 35 35 34 34 34 34 35 35 35 35 35 35 36 36 36 36 37 37 37 37 37 37 37 37 37 38 38 38 39
34 35 35 36 36 36 36 35 35 35 35 35 35 35 35 35 35 35 35 35 35 36 36 36 37 37 37 37 37 37 37 37 38 38 38 38 39 39 39 39 39 39 39 40
34 35 36 36 36 36 36 36 36 35 35 35 35 35 35 35 35 35 36 36 36 36 36 36 37 37 38 38 38 38 38 38 39 39 39 39 40 40 40 40 40 40 41 42
33 34 35 35 35 35 36 36 36 35 35 35 34 34 34 35 35 35 35 36 36 36 37 37 38 38 39 39 40 40 40 40 40 40 40 41 41 41 42 42 42 42 43 43
32 33 33 34 34 34 34 34 35 34 34 34 34 35 35 35 35 36 36 37 37 37 37 38 39 39 40 40 40 41 41 41 41 41 41 41 42 42 42 43 43 44 44 44
32 33 33 34 34 34 35 34 34 34 34 34 34 35 35 35 36 36 36 37 37 38 38 39 40 40 40 40 40 40 41 41 41 41 42 42 42 43 43 43 43 44 44 44

GEFSNGP_500_meanwind_198.txt.gz
Wind_Speed
16 15 15 15 15 15 15 14 15 14 14 15 15 14 13 13 12 12 12 12 12 12 13 13 13 13 13 13 14 13 13 13 13 13 13 12 12 12 12 12 12 12 12 12
18 17 17 16 16 16 15 15 15 14 14 15 15 15 15 13 13 13 13 13 13 13 12 13 13 14 14 14 15 15 15 15 15 14 14 14 14 13 13 13 13 13 13 13
18 18 18 18 16 16 16 15 15 15 14 14 15 15 15 14 14 13 13 13 13 13 13 13 14 14 14 14 15 15 15 15 15 15 15 15 15 15 15 15 15 15 15 15
19 19 20 17 17 17 17 16 15 15 14 15 15 14 14 14 14 14 14 14 14 14 13 13 14 14 15 15 15 15 15 16 16 16 16 16 16 16 16 16 16 16 16 17
20 21 20 18 17 17 17 18 17 16 15 16 16 15 14 13 13 13 13 13 14 14 14 14 14 15 15 16 16 15 15 16 16 17 17 17 16 17 16 16 17 17 17 17
21 21 20 18 18 18 18 18 17 17 17 16 16 16 15 14 14 14 14 13 13 14 15 15 15 15 16 16 16 16 16 17 17 18 18 18 18 18 18 17 18 18 18 19
23 22 21 20 20 20 20 19 17 17 18 17 18 17 15 15 15 15 15 14 14 15 15 16 16 16 17 17 17 17 17 18 18 19 19 19 20 20 20 19 20 20 20 20
24 24 22 22 22 21 21 20 19 19 19 19 19 17 17 16 16 16 16 15 15 16 16 17 17 17 17 18 18 18 19 19 19 20 21 20 21 21 21 20 21 21 21 21
25 25 23 22 22 22 22 22 21 21 21 21 20 19 18 18 17 17 17 17 17 17 17 17 18 19 19 19 19 20 20 20 21 22 22 22 22 22 21 21 21 22 22 22
26 26 26 25 24 24 24 24 23 23 23 22 21 21 20 19 19 19 19 19 19 19 19 18 19 20 21 21 21 21 21 22 22 23 23 23 23 23 22 22 22 23 23 24
28 27 27 27 27 26 26 25 26 25 24 23 22 22 22 21 21 20 20 20 20 20 20 20 20 21 22 22 23 23 23 23 23 23 24 24 23 23 23 23 24 25 25 26
28 27 27 27 27 27 27 26 26 26 26 25 24 24 23 23 22 21 21 21 21 22 22 21 21 22 22 23 24 24 24 24 24 24 24 24 24 24 25 25 26 26 26 27
29 27 28 27 26 26 27 26 27 27 26 26 26 25 25 23 22 22 22 22 23 23 23 23 23 23 23 24 24 24 24 24 24 24 24 24 24 25 25 26 27 27 27 28
31 30 29 28 28 28 28 27 27 28 28 27 27 26 25 24 24 24 24 24 24 24 25 25 25 25 25 25 25 25 25 25 25 25 25 26 26 26 26 27 27 27 29 30
31 32 31 29 29 29 29 29 29 29 28 28 28 27 26 26 25 25 26 25 25 26 26 26 26 25 25 25 25 25 26 26 26 27 27 27 27 27 27 28 28 29 29 30
32 33 33 32 31 31 31 31 31 30 29 29 29 29 28 28 28 27 27 27 27 27 27 27 26 26 26 26 26 26 26 27 27 28 28 28 29 29 29 30 30 31 31 32
34 34 34 34 34 33 32 33 33 32 31 31 30 30 30 30 29 29 28 28 28 28 28 28 28 28 28 28 28 28 28 28 29 29 30 30 30 30 31 32 32 33 33 34
36 36 36 36 36 35 34 34 34 33 33 32 32 31 31 31 31 30 30 29 29 29 30 30 30 30 30 30 30 30 30 30 30 31 32 32 32 33 33 34 34 35 35 36
36 37 37 36 36 36 35 35 35 35 34 34 33 32 32 32 32 31 31 31 31 30 30 30 30 31 31 31 32 32 32 32 33 33 33 34 35 35 36 36 36 37 38 38
36 37 37 37 37 36 36 35 35 35 35 34 34 33 33 32 32 32 32 32 32 31 32 32 32 32 32 33 33 34 34 34 35 35 36 36 36 37 37 37 38 38 39 39
36 36 37 37 37 36 36 36 36 36 36 35 35 35 34 34 33 33 33 33 33 33 34 34 34 34 34 34 34 35 36 36 37 38 38 38 38 38 38 39 39 40 40 40
35 36 37 37 37 37 37 37 37 37 37 37 36 36 35 35 35 35 34 34 34 35 35 35 36 36 36 36 36 37 37 38 39 39 39 39 39 39 39 39 40 40 40 40
35 35 36 36 37 37 37 37 37 37 37 37 36 36 35 35 36 36 35 35 35 36 36 36 36 36 36 37 37 37 38 38 39 39 39 39 40 40 40 40 41 41 41 41
34 35 35 36 36 36 36 37 37 37 37 37 37 36 36 35 36 36 36 36 36 36 36 36 36 36 37 37 38 38 39 39 39 39 39 40 40 40 40 40 41 41 41 42
35 35 35 36 36 36 37 37 38 38 39 39 38 38 37 37 36 36 36 37 37 37 36 36 36 37 37 38 39 39 39 40 40 39 40 40 40 40 40 41 41 41 42 42
35 36 36 37 37 37 37 38 38 39 39 40 39 39 39 38 38 37 37 37 37 37 37 37 37 37 38 38 38 39 40 40 40 40 40 40 40 40 41 41 41 41 41 42
35 35 36 36 37 37 38 38 38 39 39 40 40 39 39 39 39 38 38 38 38 38 38 38 38 38 38 38 39 39 39 39 39 40 40 40 40 41 40 40 41 41 41 41

GEFSNGP_500_meanwind_204.txt.gz
Wind_Speed
17 16 17 16 16 16 16 15 14 13 12 12 11 10 9 9 9 9 10 10 11 11 12 13 13 13 14 13 13 13 13 13 14 14 14 13 13 12 12 12 12 12 11 12
18 18 19 17 16 16 15 14 14 14 13 13 12 11 10 10 10 10 10 11 12 12 12 13 13 14 14 14 14 14 14 14 14 15 15 14 14 14 14 14 14 13 14 13
19 18 19 18 17 16 16 15 14 14 13 14 13 12 11 12 11 10 10 11 11 12 13 13 14 14 14 15 15 15 15 15 15 16 16 15 15 15 15 15 15 15 15 15
20 20 20 16 16 17 16 16 15 15 14 14 13 13 13 13 12 12 11 11 12 13 14 14 14 15 15 16 15 16 16 16 16 16 16 16 16 16 16 16 16 16 16 16
22 21 19 17 17 17 17 16 16 16 16 15 14 13 14 13 13 13 13 13 13 14 14 14 15 15 15 16 16 16 16 16 16 16 17 17 17 18 17 17 17 17 17 17
23 23 21 17 17 18 18 18 16 16 16 16 15 15 14 14 14 14 14 14 14 14 15 15 15 15 15 15 15 16 16 17 16 17 17 17 17 17 17 18 18 18 18 18
25 24 22 19 19 19 19 17 17 17 17 16 15 15 15 15 15 15 15 14 14 14 15 15 15 16 16 16 15 15 16 17 17 17 17 17 17 17 18 18 18 18 19 19
26 25 23 21 22 21 19 18 18 18 18 17 17 16 16 16 15 15 15 15 15 15 15 15 16 16 16 16 16 17 17 18 18 19 19 19 18 19 19 19 19 20 20 21
26 24 23 23 22 22 21 20 20 20 19 19 18 18 17 17 16 16 16 16 16 16 16 16 16 17 17 17 18 18 18 19 19 20 20 20 20 20 20 21 21 21 22 22
26 25 24 23 23 22 22 21 20 20 20 20 20 19 19 19 17 18 18 18 18 18 18 18 18 19 19 19 18 18 19 19 20 20 21 21 21 21 22 22 22 22 22 23
27 26 25 24 23 22 22 22 21 20 20 20 21 21 20 20 20 19 19 19 19 19 20 20 19 19 19 20 20 20 19 20 20 21 21 21 22 22 22 22 23 23 24 24
28 27 27 25 24 23 23 23 22 22 22 22 22 22 21 21 21 21 21 21 21 20 21 21 20 20 20 21 21 21 22 22 22 22 23 23 24 24 24 24 25 26 26 26
29 28 27 26 25 24 24 24 24 24 24 24 23 23 23 22 22 22 22 22 22 22 22 22 22 22 22 22 23 23 23 23 24 24 24 25 25 26 26 27 27 27 28 28
29 29 28 26 25 25 26 25 25 25 25 25 24 24 25 24 24 24 24 24 24 24 23 23 24 24 24 23 24 24 24 25 25 25 26 27 27 27 28 28 29 29 30 30
30 30 30 29 27 26 26 27 26 26 27 26 26 26 26 25 25 25 26 26 25 25 25 25 24 25 25 25 25 25 26 26 27 27 28 29 29 29 29 30 31 32 32 32
30 30 30 30 30 28 28 28 28 28 28 27 27 27 27 27 27 27 27 27 27 27 26 26 26 26 26 26 26 27 27 28 28 29 30 31 31 31 32 32 33 33 32 32
31 31 31 30 30 29 29 28 28 28 28 28 29 29 29 29 28 28 28 28 28 28 28 28 27 27 27 28 28 28 28 29 29 29 30 30 31 32 32 32 33 33 33 34
33 32 32 31 32 31 31 30 30 30 30 29 30 30 30 30 30 29 29 29 29 30 29 29 29 29 29 29 30 30 30 30 31 31 31 32 33 33 33 33 34 34 34 34
34 34 33 33 33 33 32 32 32 32 32 32 31 31 31 31 30 30 30 30 30 30 30 30 30 30 30 31 31 31 32 32 32 32 32 33 33 34 34 34 35 35 35 36
34 34 34 34 34 34 34 34 33 33 33 32 33 32 32 32 32 31 31 31 30 30 31 31 32 32 31 31 32 32 32 32 32 33 33 34 34 34 34 35 35 36 36 37
34 34 35 35 35 35 35 35 35 34 34 33 33 33 33 33 33 33 33 32 31 31 32 32 32 32 32 32 33 33 33 32 33 33 34 35 35 36 36 36 37 37 37 38
33 34 34 35 35 36 35 35 35 35 35 34 34 34 34 34 34 34 34 33 33 33 33 34 34 34 34 34 34 35 34 35 35 36 36 36 36 37 37 37 37 37 37 38
32 33 34 34 35 35 36 36 35 36 36 36 35 36 36 36 35 35 35 35 35 35 35 35 35 35 35 36 36 36 36 36 36 37 37 37 37 38 38 38 38 38 38 39
32 33 34 34 34 34 34 35 36 36 36 36 37 37 37 36 36 36 36 36 36 36 36 36 36 36 36 36 37 37 37 36 36 37 37 37 38 38 38 38 39 39 39 39
33 33 33 33 33 34 34 34 35 35 35 36 37 37 38 38 38 37 37 37 37 37 36 36 36 36 37 37 37 37 37 37 37 37 37 38 38 39 39 39 39 39 39 39
32 32 33 33 34 34 34 34 34 34 34 35 35 36 37 38 38 37 37 37 38 38 38 37 37 37 37 37 37 37 37 36 36 37 37 38 38 39 39 39 40 39 39 39
32 32 32 33 33 33 33 33 33 33 33 34 34 35 36 36 37 36 37 37 38 38 38 37 37 37 38 38 37 37 37 37 37 37 38 38 39 39 39 39 39 40 39 39

GEFSNGP_500_meanwind_210.txt.gz
Wind_Speed
21 20 20 20 20 19 19 18 17 15 15 14 14 13 12 12 12 12 12 12 12 12 13 13 13 13 13 13 13 14 14 14 13 13 14 13 13 13 13 13 13 14 14 14
22 22 22 21 21 20 19 18 17 16 15 15 15 14 14 13 12 12 12 12 13 13 13 14 14 14 14 14 14 14 14 14 14 14 14 14 14 14 14 14 14 15 14 14
22 22 23 22 20 19 18 18 17 17 16 16 16 15 14 14 13 13 12 12 12 13 14 14 14 14 14 14 14 14 15 14 15 15 15 15 15 16 16 16 16 16 15 15
22 22 24 19 20 19 18 18 18 17 17 16 16 16 15 15 15 14 14 13 13 13 14 14 14 14 14 14 14 14 15 15 15 16 16 16 17 17 17 17 17 16 17 17
24 23 22 19 20 19 19 19 18 17 17 17 17 16 15 15 15 15 14 14 14 14 14 14 14 14 15 15 14 14 15 16 16 17 17 17 17 18 18 18 18 18 18 18
25 24 22 19 19 20 20 20 18 18 17 17 17 16 15 15 15 15 15 15 15 15 15 14 14 14 15 15 15 15 15 15 15 16 17 17 18 18 18 18 18 19 18 19
24 24 22 20 20 21 20 18 19 19 18 18 18 16 15 16 16 15 15 15 15 15 14 15 15 15 15 16 16 16 16 16 15 16 16 17 17 18 18 18 19 19 19 19
24 25 22 21 21 21 19 20 19 19 19 19 19 18 17 17 17 16 16 16 16 15 15 16 16 16 17 17 17 18 17 17 17 17 18 18 18 19 19 19 19 19 20 20
25 24 23 23 22 21 21 20 20 20 20 20 20 19 18 18 18 18 17 17 17 17 16 17 17 17 17 18 18 19 18 18 18 18 18 19 19 20 20 20 20 20 21 21
26 25 25 24 23 22 22 21 22 22 22 21 21 20 19 19 19 19 19 19 18 18 18 17 18 18 19 19 19 19 19 20 20 20 20 20 21 21 21 21 22 22 22 23
26 26 26 25 24 24 23 22 23 23 23 23 22 21 21 21 21 21 21 20 20 19 19 19 19 19 20 20 20 20 21 21 22 22 22 22 23 23 23 23 24 24 24 25
26 26 27 26 25 26 25 24 24 25 24 24 23 23 23 23 23 23 23 23 22 21 20 20 20 21 21 22 22 22 22 23 24 24 24 24 24 24 24 25 25 26 26 26
27 27 27 27 27 27 26 26 26 26 26 26 25 25 25 24 24 24 24 24 24 23 23 22 22 22 22 22 23 23 24 24 24 25 25 25 26 26 26 27 27 28 27 28
28 28 27 27 27 27 26 26 27 27 26 26 26 26 26 26 26 26 26 25 25 25 24 24 24 24 24 24 24 25 25 26 26 26 27 27 27 27 28 28 28 28 28 29
29 29 28 28 27 27 27 27 27 27 27 27 28 29 28 28 28 27 27 26 26 26 25 25 25 25 25 26 26 26 26 27 28 27 28 28 28 28 29 29 29 29 30 30
30 30 30 29 29 30 29 29 29 29 28 29 30 30 29 29 29 28 28 28 28 27 26 26 26 26 26 26 27 27 27 27 28 28 28 28 29 29 30 30 31 31 32 32
31 32 32 31 31 31 31 31 30 30 30 29 29 30 30 30 30 29 29 29 29 29 28 27 27 27 27 27 27 27 27 27 28 28 29 29 30 30 31 31 31 32 33 34
31 32 32 32 31 31 31 32 32 31 31 31 31 30 30 31 31 30 31 31 31 30 29 28 28 28 28 28 28 28 29 29 29 29 30 31 31 32 32 33 33 34 34 34
30 31 31 32 32 32 32 33 33 32 32 32 32 32 32 32 32 32 32 32 32 31 30 30 30 31 31 30 30 30 31 31 31 31 32 32 33 33 33 33 33 34 35 35
32 31 31 33 33 34 34 34 33 33 33 33 33 33 33 33 33 33 33 33 33 33 33 33 33 33 32 32 33 33 33 32 32 32 32 32 33 33 34 34 35 36 36 36
34 32 32 33 34 35 35 35 35 34 34 34 34 34 34 34 34 34 34 34 34 34 34 34 34 34 34 34 34 34 34 33 33 34 35 35 35 35 35 36 36 37 37 37
33 33 33 34 34 35 36 36 36 36 36 35 34 35 35 35 36 35 36 35 35 35 35 35 35 35 36 36 36 36 36 36 36 36 36 36 37 36 37 37 37 37 38 38
33 33 34 34 35 35 36 36 37 37 37 36 36 36 36 37 37 36 36 36 36 36 36 36 36 36 37 38 38 38 38 37 37 37 37 37 37 37 37 37 38 38 39 39
33 33 33 34 34 35 36 36 37 37 37 36 36 36 37 37 36 37 37 36 36 37 37 38 38 37 38 38 38 39 38 38 37 38 38 38 38 38 38 38 38 38 38 38
33 33 33 34 34 35 35 36 36 37 36 36 36 36 36 36 36 37 38 39 39 40 39 39 39 39 39 39 39 39 40 39 39 39 38 38 38 38 38 38 38 38 38 38
31 32 33 33 34 35 35 35 35 36 36 36 35 35 36 37 37 37 38 38 40 40 41 40 40 39 39 39 39 39 39 39 39 39 39 38 38 38 38 38 38 38 39 38
32 32 33 33 34 34 35 35 35 34 35 35 35 35 35 36 37 37 38 38 38 39 39 39 39 39 39 39 39 39 39 39 39 39 38 38 38 38 39 39 39 40 40 39

GEFSNGP_500_meanwind_216.txt.gz
Wind_Speed
21 22 22 21 22 21 21 21 20 18 17 16 16 15 14 14 13 13 12 12 12 12 12 12 12 12 12 12 13 13 13 12 13 13 12 12 12 12 13 13 13 14 13 14
21 22 23 23 22 22 22 21 20 19 17 17 17 16 16 15 14 14 13 13 13 13 13 13 13 12 12 12 12 13 13 13 13 13 13 13 13 13 13 14 14 14 15 15
21 21 23 23 22 21 21 21 21 20 18 18 18 17 17 16 15 15 15 14 13 13 14 14 14 13 13 13 13 13 13 13 13 13 13 12 12 13 13 14 14 15 15 15
21 21 22 21 21 21 21 21 21 20 20 20 19 18 17 17 16 16 15 15 14 14 14 14 14 14 14 14 14 14 14 14 14 14 13 13 13 13 13 13 14 15 16 16
22 22 22 21 21 21 21 21 21 21 21 22 21 19 18 17 17 16 16 15 15 15 15 15 15 15 14 14 14 14 14 14 14 14 14 14 14 14 14 14 15 15 16 17
23 23 22 21 21 21 21 21 21 22 22 22 21 20 19 18 18 17 16 16 16 16 16 16 16 16 15 15 15 15 15 15 15 15 15 15 16 15 15 16 16 16 16 18
23 23 22 22 21 21 21 21 22 23 22 22 22 21 20 19 19 18 17 17 17 16 16 16 16 17 17 16 16 16 16 16 16 16 16 16 17 17 16 16 16 17 18 19
24 24 23 22 21 21 21 21 22 23 23 23 22 22 22 21 20 19 18 18 17 17 17 17 17 18 18 17 17 17 17 17 17 17 17 18 18 18 18 18 18 18 19 19
25 24 23 22 22 22 22 22 21 21 23 24 23 23 22 22 21 20 20 19 19 18 18 18 18 18 19 18 18 17 17 18 18 18 18 18 18 18 18 19 19 19 19 20
25 24 24 23 23 23 23 22 22 21 21 22 22 22 22 22 22 21 21 20 20 20 19 19 19 19 19 19 19 18 18 18 18 18 18 19 19 19 20 20 21 21 21 21
25 23 23 23 23 23 23 23 23 22 22 22 22 22 22 23 23 23 22 21 21 21 20 20 20 20 20 20 20 20 19 19 19 19 19 19 20 20 21 21 22 22 22 22
25 24 23 23 23 24 24 24 24 24 24 24 24 23 23 24 24 24 24 23 22 22 22 21 21 21 21 21 21 21 21 21 21 21 21 21 21 22 22 22 23 23 23 23
25 25 24 24 25 25 25 25 25 25 25 25 25 24 24 24 25 25 25 25 25 24 24 23 23 22 22 22 23 23 23 23 23 23 23 23 23 23 24 24 25 25 25 25
25 25 25 25 25 26 26 26 26 26 26 27 27 26 26 26 26 26 26 26 26 26 25 24 24 24 24 24 24 24 24 24 24 25 25 25 25 25 25 26 26 27 27 27
27 26 26 26 26 26 27 27 27 27 28 28 29 29 28 28 27 27 27 27 27 27 27 26 26 26 26 26 26 26 26 26 26 27 27 27 27 27 27 28 28 28 28 28
28 28 27 27 26 27 28 27 28 28 29 29 30 30 30 29 29 29 29 29 28 28 28 28 27 27 28 28 28 28 28 28 28 28 28 28 29 29 29 29 29 29 29 29
29 29 29 29 28 27 28 28 29 29 29 30 32 32 32 31 31 31 31 31 31 30 30 30 30 29 29 29 30 30 30 30 30 30 30 30 30 30 30 30 30 30 31 31
29 30 30 30 29 29 29 29 29 29 30 30 31 32 33 32 32 32 32 33 33 32 32 32 32 32 31 31 32 32 32 31 31 31 32 32 32 32 31 31 31 31 32 31
29 29 29 30 30 30 29 29 30 30 31 31 31 31 32 33 33 34 34 34 33 33 34 33 33 33 33 33 33 33 33 33 33 33 33 33 32 32 32 32 33 32 32 33
29 29 29 30 30 30 30 30 30 31 32 32 32 32 32 33 34 34 34 34 34 34 34 35 35 35 34 34 34 34 34 34 34 34 34 34 33 33 33 33 33 33 34 34
31 31 30 30 30 30 31 31 31 32 32 33 33 33 33 33 34 34 34 34 34 34 34 34 35 35 34 34 34 34 34 34 34 35 34 34 34 34 34 34 34 34 35 35
31 31 32 31 31 31 31 31 31 32 33 33 33 33 33 34 34 34 34 34 35 35 35 35 35 35 35 35 35 35 35 35 34 34 34 35 35 35 35 35 35 35 36 36
29 30 30 31 31 31 31 32 32 32 33 33 34 34 34 34 35 35 35 35 36 35 35 36 36 36 35 35 35 35 35 35 35 35 35 35 36 36 36 36 36 36 36 36
29 29 30 31 31 32 31 32 32 32 33 33 33 34 34 35 35 35 36 36 36 36 36 36 36 36 36 36 35 35 35 36 36 36 36 36 36 36 36 37 36 36 36 37
29 29 30 30 31 31 31 32 32 33 33 33 33 34 34 35 35 35 35 36 37 37 36 37 37 37 37 37 37 37 37 37 37 37 37 37 37 37 37 37 37 37 37 37
29 30 30 31 31 31 31 32 33 33 33 33 33 34 34 34 35 35 34 34 35 35 36 37 37 37 37 38 38 38 37 37 38 38 38 38 39 38 38 38 38 38 38 38
30 31 31 32 32 32 32 32 33 33 33 33 33 33 33 33 33 34 34 34 34 35 35 36 37 37 38 39 39 38 38 38 38 38 38 38 39 39 40 39 39 39 40 40

GEFSNGP_500_meanwind_222.txt.gz
Wind_Speed
21 21 21 22 23 23 24 23 23 21 20 19 19 18 17 16 15 15 15 14 14 14 14 14 13 12 12 12 12 11 11 11 11 11 11 11 11 12 12 11 11 12 12 13
21 20 21 22 23 24 24 24 24 23 21 20 19 19 19 19 17 16 17 16 15 15 15 14 13 12 12 11 12 11 11 11 11 11 11 11 11 12 11 11 11 12 12 13
21 21 23 23 22 22 23 23 23 23 23 22 21 21 21 20 18 17 18 18 17 16 15 14 14 13 13 12 12 12 12 12 12 12 11 12 12 12 12 12 12 12 12 13
21 22 23 21 21 22 21 22 23 23 23 23 23 22 22 21 20 19 18 18 18 17 17 16 15 15 14 13 13 13 12 12 13 13 13 13 13 13 13 12 13 13 13 14
22 23 22 21 22 21 22 21 22 23 23 23 24 24 23 23 21 20 19 19 18 18 18 17 16 16 15 15 14 14 13 13 14 14 14 14 14 14 14 14 14 14 15 15
22 22 22 20 20 20 22 22 22 22 22 23 24 24 24 23 22 21 20 20 19 19 18 17 17 17 17 16 15 15 15 15 15 15 15 15 15 15 14 15 15 15 16 17
22 22 22 20 21 21 22 22 22 22 22 23 24 24 25 25 23 22 21 21 21 20 19 18 17 17 17 17 16 16 16 16 16 16 16 16 16 16 16 17 17 17 18 18
23 23 22 21 22 23 23 23 22 22 22 23 24 25 25 24 24 23 22 22 22 21 20 19 19 19 19 18 18 17 17 17 17 18 18 18 17 18 18 18 18 19 19 19
23 23 22 22 23 24 24 24 24 24 23 23 23 24 25 24 24 24 23 23 23 22 21 21 20 20 20 19 19 19 18 18 19 19 19 19 19 19 19 19 19 19 20 20
24 23 22 23 24 25 25 25 25 25 25 25 24 24 25 25 25 25 24 24 23 23 22 22 22 21 20 20 20 20 19 19 19 20 20 20 20 20 20 20 20 21 21 21
25 24 24 24 25 25 26 26 25 25 25 25 25 26 26 26 26 26 26 25 24 24 24 23 23 22 22 21 21 21 20 20 20 20 21 20 20 20 21 21 22 22 23 23
27 25 25 25 25 25 25 25 25 25 24 25 26 26 26 26 26 26 26 26 25 25 25 25 24 24 23 23 23 22 22 22 22 22 22 21 21 22 22 23 24 24 25 25
28 27 27 26 26 26 25 25 24 25 25 25 26 26 26 26 26 26 27 27 27 27 26 26 25 25 25 24 24 24 24 23 23 23 23 23 23 24 24 25 25 25 26 26
29 29 29 28 28 28 27 26 25 25 26 26 26 26 26 26 26 26 27 27 27 27 27 26 26 26 26 25 25 25 25 25 24 25 25 25 25 26 26 26 26 27 27 28
29 29 29 29 28 28 28 27 27 27 27 27 26 26 27 26 26 26 27 27 27 28 28 28 27 27 27 27 27 27 27 27 27 27 27 27 27 28 28 28 28 28 28 29
30 30 30 30 29 29 28 28 28 27 27 27 27 27 27 27 27 27 28 28 28 28 29 29 29 29 29 29 29 29 29 30 30 30 29 29 29 30 30 30 30 30 30 30
32 31 31 30 30 30 30 30 29 29 28 28 28 28 29 29 29 29 30 30 30 30 30 31 31 31 32 32 31 31 32 32 32 32 32 32 31 32 32 32 32 32 32 32
32 32 32 32 31 31 31 31 31 31 30 30 29 30 31 31 30 31 31 32 32 31 32 33 33 33 33 33 33 34 34 34 33 33 34 34 33 33 33 34 34 33 33 33
32 32 32 33 32 32 32 31 31 32 32 31 31 31 32 32 32 32 33 33 33 33 34 34 35 35 34 34 35 35 36 35 35 35 35 35 35 34 34 34 34 34 34 34
32 33 33 33 32 32 32 32 32 32 32 32 32 32 32 32 33 33 34 34 34 34 34 35 35 36 36 36 36 35 36 36 36 36 35 35 35 36 35 35 35 35 34 34
33 33 34 34 33 33 33 33 33 32 32 33 33 32 32 33 33 33 33 34 34 35 35 36 36 36 36 37 37 37 37 37 37 36 35 36 36 36 36 36 36 36 36 36
32 32 33 34 34 34 34 34 34 33 33 34 34 34 34 34 34 34 34 34 35 35 36 36 37 37 38 38 38 38 38 37 36 36 35 35 36 36 36 36 36 36 36 37
30 31 32 32 33 34 34 34 34 35 35 35 35 35 35 35 35 35 35 35 36 36 37 37 37 38 38 38 38 37 37 37 37 36 36 36 37 37 37 37 37 38 38 38
30 30 31 31 32 33 34 35 35 36 36 36 36 36 36 35 35 36 36 36 36 37 37 37 37 38 37 38 38 37 37 37 37 37 37 37 37 37 37 37 38 38 38 39
30 30 30 31 32 32 33 34 35 35 35 35 35 35 35 36 36 36 37 37 36 37 37 37 37 37 38 37 37 37 37 37 38 38 39 39 39 38 38 38 38 38 38 39
30 30 30 31 31 32 33 33 34 34 35 35 35 35 35 35 35 36 37 37 37 36 36 36 37 38 38 37 37 37 37 38 38 38 38 39 40 40 39 39 39 39 40 39
29 30 30 31 31 31 32 33 33 33 34 34 35 35 35 35 35 35 36 36 36 36 36 36 37 37 37 37 38 38 38 39 39 40 40 40 40 40 41 41 40 40 40 40